DECAYED

STARLINK-1776, 46682 (Decayed)

Orbit data source: Space-Track

STARLINK-1776, 46682 was a payload satellite owned by SpaceX/Seattle (US) in LEO that was launched on Sun, 18 Oct 2020 UTC via an FALCON 9 launch vehicle from the Air Force Eastern Test Range (AFETR). Payload-class satellites include a variety of spacecraft equipped with specific instruments for various scientific and technological missions. These include communications satellites like Starlink; space stations such as the ISS; scientific satellites like the Hubble; Earth observation satellites from companies like Planet Labs, Umbra, and HawkEye 360; GPS; miniature CubeSats for education and research; and military/defense satellites.

Not visible in the next 10 days
Identifier
46682, 2020-073N
Orbit
Decayed
Country
Flag of USUS
Related business
Manufacturer
SpaceX/Seattle
Mission
Decayed Commercial Communications
Bus & Motor
STARLINK, Unknown motor
Mass
260 kg wet, ~248 kg dry
Launch date (UTC)
2020-10-18 (6 years ago)
Launch vehicle
FALCON 9
Launch site
Air Force Eastern Test Range (AFETR)
Object type
Payload
Rocket body
Debris
Shape & HBR
Box + 1 Pan, 10.1 m
Radar Cross Section
13.562 m², Large (>1 m²)

Expand to show TLE details & history
Last TLE update: 1 year ago

TLE from 1 year ago
0 STARLINK-1776
1 46682U 20073N   25037.71560852  .08473893  12276-4  92856-3 0  9996
2 46682  53.0273 199.1192 0006955 276.2720 182.8929 16.36432438238317
Epoch: 2025-02-06T17:10Z
TLE epoch observation values (Epoch: 2025-02-06T17:10:28.576Z)
Latitude
52.22479°
Longitude
-90.5612°
Altitude
186.124 km
Speed
7.798 km/s
True Right ascension
20h 16m 35s
True Declination
52° 02' 37"
Sunlit
Object was in daylight at epoch
Visualization orbit readout
Latitude
Unknown
Longitude
Unknown
Altitude
Unknown
Speed
Unknown
Apparent Right ascension
Unknown
Apparent Declination
Unknown
Sunlit
N/A
Visualization observer readout
Local Sidereal Time
00:28:07
Azimuth
Unknown
Elevation
Unknown
Doppler factor
Unknown
Orbital elements
Apogee altitude
180.158 km
Perigee altitude
171.042 km
Semi-major axis
6,553.737 km
Eccentricity
0.0007
Inclination
53.0273°
RAAN
199.1192°
Arg. of periapsis
276.272°
True anomaly
182.88888°
Mean anomaly
182.8929°
Eccentric anomaly
182.89089°
Mean motion
4.09081 °/min
Orbital period
88 mins
BSTAR
0.00092856
Loading maneuver chart data...
Computing Atmospheric mass density...

Documentation

Showing up to 5 results
|